[[{"header":{"parameterUnit":"m.s-1","parameterCategory":1,"la1":30.2991,"la2":30.254,"lo1":-89.0895,"lo2":-89.0444,"dy":0.0017,"dx":0.0017,"nx":28,"ny":28,"refTime":"2025-12-12T03:00:00:Z","depth":0,"parameterNumber":2,"parameterNumberName":"U-component_of_WINDS"},"data":[0,0,0,0,0,0,0,0,0,0,0,0,0,0,0,0,0,0,0,0,0,0,0,0,0,0,0,0,0,0,0,0,0,0,0,0,0,0,0,0,0,0,0,0,0,0,0,0,0,0,0,0,0,0,0,0,0,0,-1.8436,-1.8436,0,-1.8469,-1.8469,-1.847,-1.8413,-1.8411,-1.8409,-1.8407,-1.8445,-1.8448,-1.8451,0,0,0,0,0,0,0,0,0,0,0,0,0,-1.8327,-1.8329,-1.8436,-1.8436,-1.8436,-1.8469,-1.847,-1.847,-1.8413,-1.8411,-1.8409,-1.8406,-1.8444,-1.8447,-1.8451,0,0,0,0,0,0,0,0,0,0,0,0,0,-1.8369,-1.833,-1.8436,-1.8412,-1.841,-1.8469,-1.847,-1.847,-1.8414,-1.8411,-1.8408,-1.8405,-1.8443,-1.8447,-1.8451,-1.8535,0,0,-1.8464,-1.8466,0,0,0,0,0,0,0,0,-1.8366,-1.8373,-1.8415,-1.8414,-1.8412,-1.8434,-1.8445,-1.8492,-1.8415,-1.8413,-1.8407,-1.8404,-1.8444,-1.8448,-1.8461,-1.8537,-1.8539,-1.8465,-1.8467,-1.8469,-1.847,0,0,0,0,0,0,0,-1.8363,-1.8371,-1.8449,-1.8416,-1.8414,-1.8401,-1.8404,-1.8454,-1.8444,-1.8413,-1.8408,-1.8413,-1.8442,-1.8457,-1.8461,-1.8539,-1.8464,-1.8468,-1.8471,-1.8472,-1.8688,-1.8691,0,0,0,0,0,0,-1.8363,-1.8369,-1.8448,-1.845,-1.8381,-1.8406,-1.8409,-1.843,-1.8444,-1.8443,-1.8416,-1.841,-1.8451,-1.8456,-1.8462,-1.8562,-1.8469,-1.8473,-1.8475,-1.8685,-1.8689,-1.8692,0,0,0,0,0,0,-1.8361,-1.8371,-1.8447,-1.8408,-1.8417,-1.841,-1.8435,-1.8432,-1.8446,-1.8446,-1.8444,-1.8431,-1.8449,-1.8456,-1.8518,-1.8562,-1.8475,-1.8479,-1.8681,-1.8686,-1.869,-1.8762,0,0,0,0,0,0,-1.8358,-1.837,-1.8401,-1.8409,-1.8419,-1.85,-1.8438,-1.8435,-1.8453,-1.8447,-1.846,-1.846,-1.8447,-1.8512,-1.8522,-1.8567,-1.8482,-1.8677,-1.8683,-1.8689,-1.8756,-1.8769,-1.878,0,0,0,0,0,-1.8354,-1.842,-1.8403,-1.8413,-1.8457,-1.8503,-1.8509,-1.8492,-1.8457,-1.8488,-1.8489,-1.8459,-1.8556,-1.8518,-1.8529,-1.8576,-1.8674,-1.8682,-1.8688,-1.875,-1.8766,-1.878,0,0,0,0,0,0,-1.8418,-1.8421,-1.8401,-1.8472,-1.8488,-1.8493,-1.8532,-1.8509,-1.8536,-1.8529,-1.8508,-1.8511,-1.8578,-1.8583,-1.8541,-1.8659,-1.8609,-1.8619,-1.8653,-1.8668,-1.868,-1.8677,-1.8485,0,0,0,0,0,-1.844,-1.8476,-1.8477,-1.8539,-1.8548,-1.8539,-1.8558,-1.8544,-1.856,-1.8566,-1.8571,-1.8588,-1.8622,-1.8646,-1.8677,-1.8757,-1.8759,-1.8794,-1.8807,-1.8816,-1.8825,-1.8868,-1.8884,-1.8716,-1.8716,-1.8716,0,0,-1.8486,-1.8492,-1.8516,-1.8552,-1.8562,-1.8601,-1.8545,-1.8588,-1.8616,-1.8573,-1.8631,-1.8635,-1.8654,-1.8724,-1.8756,-1.8731,-1.8872,-1.8826,-1.8834,-1.8837,-1.8877,-1.8893,-1.8907,-1.8721,-1.872,-1.8719,0,0,-1.859,-1.8598,-1.8651,-1.8663,-1.8679,-1.8673,-1.8686,-1.8695,-1.8696,-1.8754,-1.8722,-1.8757,-1.8816,-1.8831,-1.8846,-1.8957,-1.8932,-1.8968,-1.9031,-1.9074,-1.9087,-1.9099,-1.9139,-1.9153,-1.8977,-1.8977,-1.8977,0,-1.8646,-1.8701,-1.8681,-1.8726,-1.8744,-1.8706,-1.876,-1.8773,-1.8799,-1.8812,-1.8784,-1.8858,-1.8868,-1.8942,-1.8969,-1.8983,-1.8998,-1.8966,-1.9087,-1.9098,-1.9109,-1.9146,-1.9161,-1.8982,-1.8981,-1.8981,-1.898,0,-1.8769,-1.8808,-1.8849,-1.8874,-1.8897,-1.8946,-1.8935,-1.896,-1.8945,-1.8942,-1.9002,-1.9013,-1.9046,-1.9063,-1.9048,-1.9136,-1.912,-1.909,-1.9039,-1.9129,-1.9164,-1.9179,-1.8988,-1.8986,-1.8985,-1.8984,0,0,-1.8912,-1.8927,-1.8942,-1.8954,-1.897,-1.9,-1.9049,-1.9081,-1.9103,-1.9123,-1.9164,-1.9216,-1.9188,-1.9205,-1.9193,-1.923,-1.9318,-1.9195,-1.9195,-1.9218,-1.9415,-1.9437,-1.9454,-1.9301,-1.9304,-1.9306,-1.9414,0,-1.9015,-1.9097,-1.9082,-1.9163,-1.9199,-1.9165,-1.9208,-1.9223,-1.9222,-1.9255,-1.9255,-1.9291,-1.9252,-1.9263,-1.9298,-1.93,-1.9357,-1.9292,-1.934,-1.9342,-1.9336,-1.9473,-1.9496,-1.9596,-1.9427,-1.943,-1.9431,0,-1.9146,-1.917,-1.9254,-1.9265,-1.928,-1.9318,-1.9347,-1.9378,-1.9395,-1.9392,-1.9412,-1.9393,-1.9443,-1.9393,-1.9462,-1.9418,-1.9437,-1.9441,-1.9445,-1.9448,-1.9391,-1.9479,-1.9628,-1.9643,-1.9453,-1.9451,-1.9449,0,-1.9242,-1.9296,-1.9353,-1.9364,-1.9378,-1.9406,-1.9414,-1.9428,-1.9449,-1.9474,-1.9488,-1.9519,-1.9537,-1.9562,-1.9552,-1.9517,-1.9624,-1.9573,-1.9624,-1.9624,-1.9647,-1.9646,-1.9801,-1.9661,-1.966,-1.966,-1.966,0,-1.9358,-1.9411,-1.9396,-1.9432,-1.9491,-1.9473,-1.9533,-1.9536,-1.955,-1.9586,-1.9559,-1.9594,-1.9579,-1.9614,-1.9607,-1.9666,-1.9674,-1.9674,-1.9671,-1.9676,-1.9676,-1.9688,-1.968,-1.9664,-1.9663,-1.9662,-1.9662,0,-1.9474,-1.9467,-1.9527,-1.9536,-1.954,-1.9583,-1.9591,-1.9625,-1.9623,-1.9669,-1.9679,-1.9677,-1.9716,-1.9709,-1.9753,-1.9749,-1.9822,-1.9811,-1.9816,-1.9813,-1.9864,-1.986,-2.0032,-2.0054,-1.99,-1.9902,-1.9903,0,-1.9548,-1.9588,-1.9601,-1.9623,-1.9633,-1.9669,-1.9689,-1.9675,-1.9698,-1.9721,-1.9753,-1.979,-1.9818,-1.9884,-1.9886,-1.992,-1.991,-1.9968,-1.9915,-1.9918,-1.991,-1.9908,-1.9912,-1.9978,-1.998,-1.9981,-1.9983,0,-1.9681,-1.9675,-1.9705,-1.9735,-1.976,-1.9783,-1.9803,-1.9824,-1.9811,-1.9838,-1.9878,-1.99,-1.9945,-1.9983,-2.0015,-2.0024,-2.0002,-2.0,-2.0013,-2.0018,-2.0019,-2.0019,-1.9844,-1.9995,-1.9994,-1.9993,-1.9992,-1.9992,-1.9778,-1.9812,-1.9827,-1.9862,-1.9875,-1.9895,-1.9928,-1.993,-1.9962,-1.9997,-1.9987,-2.0032,-2.005,-2.0091,-2.0104,-2.014,-2.0118,-2.0138,-2.0143,-2.0148,-2.0154,-2.0014,-2.0146,-2.0145,-2.0145,-2.0145,-2.0145,0,-1.9908,-1.9917,-1.9949,-1.9978,-2.0006,-1.9982,-2.0004,-2.0029,-2.0069,-2.0087,-2.0116,-2.0163,-2.0199,-2.0205,-2.024,-2.0268,-2.0259,-2.0278,-2.0275,-2.0278,-2.0171,-2.0156,-2.0285,-2.0285,-2.0285,-2.0285,-2.0285,-2.0285,-1.998,-2.0036,-2.0033,-2.0097,-2.0105,-2.0148,-2.0162,-2.0181,-2.0196,-2.0248,-2.0278,-2.0282,-2.0296,-2.0332,-2.0365,-2.0366,-2.038,-2.0403,-2.04,-2.03,-2.0286,-2.0272,-2.0257,-2.0406,-2.0406,-2.0504,-2.0505,-2.0505]},{"header":{"parameterUnit":"m.s-1","parameterCategory":1,"la1":30.2991,"la2":30.254,"lo1":-89.0895,"lo2":-89.0444,"dy":0.0017,"dx":0.0017,"nx":28,"ny":28,"refTime":"2025-12-12T03:00:00:Z","depth":0,"parameterNumber":3,"parameterNumberName":"V-component_of_WINDS"},"data":[0,0,0,0,0,0,0,0,0,0,0,0,0,0,0,0,0,0,0,0,0,0,0,0,0,0,0,0,0,0,0,0,0,0,0,0,0,0,0,0,0,0,0,0,0,0,0,0,0,0,0,0,0,0,0,0,0,0,0.0549,0.0549,0,0.0597,0.0598,0.0598,0.0675,0.0677,0.0678,0.0679,0.0726,0.0726,0.0726,0,0,0,0,0,0,0,0,0,0,0,0,0,0.0521,0.0521,0.0549,0.0549,0.055,0.0597,0.0598,0.0598,0.0675,0.0677,0.0678,0.068,0.0726,0.0726,0.0726,0,0,0,0,0,0,0,0,0,0,0,0,0,0.0548,0.0521,0.0549,0.0594,0.0598,0.0597,0.0598,0.0599,0.0675,0.0677,0.0679,0.0681,0.0726,0.0726,0.0726,0.0684,0,0,0.0726,0.0726,0,0,0,0,0,0,0,0,0.0546,0.0549,0.0587,0.0591,0.0596,0.0632,0.0605,0.0627,0.0674,0.0645,0.0679,0.0682,0.0693,0.0696,0.07,0.0686,0.0688,0.0726,0.0726,0.0726,0.0726,0,0,0,0,0,0,0,0.0544,0.0547,0.0568,0.0587,0.0593,0.0611,0.0617,0.061,0.0657,0.0648,0.0654,0.0659,0.0696,0.07,0.0702,0.0688,0.0726,0.0726,0.0726,0.0726,0.0643,0.0641,0,0,0,0,0,0,0.0536,0.0545,0.0566,0.0569,0.0576,0.061,0.0617,0.0618,0.0657,0.0665,0.0657,0.0662,0.0699,0.0702,0.0704,0.0658,0.0726,0.0726,0.0726,0.0645,0.0643,0.064,0,0,0,0,0,0,0.0535,0.0537,0.0564,0.0559,0.0564,0.0608,0.0609,0.0618,0.0623,0.0664,0.0672,0.0653,0.0701,0.0704,0.0689,0.066,0.0726,0.0726,0.0648,0.0644,0.0641,0.0564,0,0,0,0,0,0,0.0534,0.0536,0.0521,0.0558,0.0564,0.0548,0.0608,0.0618,0.0623,0.063,0.0662,0.0669,0.0703,0.0688,0.0688,0.0661,0.0725,0.065,0.0646,0.0642,0.0569,0.0558,0.0549,0,0,0,0,0,0.0533,0.0496,0.052,0.0522,0.0545,0.0546,0.055,0.059,0.062,0.0605,0.0631,0.0668,0.0663,0.0686,0.0687,0.0659,0.0652,0.0647,0.0643,0.0574,0.0561,0.0549,0,0,0,0,0,0,0.0453,0.0502,0.0528,0.0503,0.052,0.0559,0.0541,0.0575,0.0583,0.0589,0.0638,0.0645,0.0623,0.064,0.0664,0.0621,0.0664,0.0659,0.0611,0.0599,0.0589,0.0585,0.0725,0,0,0,0,0,0.0433,0.043,0.0473,0.0446,0.0454,0.0496,0.0498,0.0528,0.0547,0.0555,0.058,0.0597,0.06,0.06,0.0605,0.0572,0.0581,0.0554,0.0544,0.0535,0.053,0.0516,0.0504,0.0624,0.0624,0.0625,0,0,0.039,0.0417,0.0412,0.0431,0.0448,0.0444,0.0501,0.0494,0.0492,0.0553,0.0541,0.056,0.0582,0.0559,0.0549,0.0572,0.0499,0.0529,0.0522,0.0522,0.0509,0.0498,0.0488,0.0621,0.0622,0.0622,0,0,0.0311,0.0331,0.0311,0.0328,0.0353,0.0382,0.0377,0.0412,0.0428,0.0416,0.0462,0.046,0.0463,0.0477,0.0485,0.0413,0.0448,0.0413,0.0361,0.0346,0.0336,0.0328,0.0303,0.0293,0.0408,0.0408,0.0408,0,0.0255,0.0252,0.0297,0.0288,0.0295,0.0352,0.0332,0.0346,0.0371,0.0374,0.0399,0.0406,0.0424,0.0405,0.0388,0.0392,0.0388,0.041,0.0334,0.0327,0.032,0.0296,0.0287,0.0404,0.0404,0.0405,0.0405,0,0.0182,0.0179,0.016,0.0185,0.019,0.0175,0.0218,0.0218,0.0247,0.0273,0.0261,0.0286,0.0297,0.0295,0.0323,0.028,0.0293,0.0325,0.0369,0.0303,0.0282,0.0273,0.0398,0.0399,0.04,0.0402,0,0,0.0053,0.0104,0.0096,0.0109,0.0142,0.014,0.0128,0.0141,0.014,0.0155,0.0147,0.0149,0.018,0.0189,0.0219,0.0206,0.0148,0.024,0.0241,0.0222,0.0103,0.0079,0.0068,0.0172,0.017,0.0169,0.0101,0,-0.0019,-0.0035,0.0006,-0.0021,-0.0022,0.0032,0.0022,0.0041,0.0066,0.0067,0.0094,0.0095,0.0135,0.0141,0.013,0.0157,0.0125,0.0163,0.0164,0.0164,0.0157,0.0056,0.003,-0.0035,0.0093,0.0092,0.0091,0,-0.0106,-0.0093,-0.0119,-0.0083,-0.0082,-0.0092,-0.0077,-0.0076,-0.0053,-0.0034,-0.0024,0.0012,0.0004,0.0046,0.0035,0.006,0.0063,0.0077,0.0075,0.0077,0.0123,0.0055,-0.0054,-0.0064,0.0078,0.0079,0.008,0,-0.0196,-0.0186,-0.02,-0.0191,-0.015,-0.0157,-0.0141,-0.0115,-0.011,-0.0097,-0.0093,-0.0082,-0.0076,-0.0068,-0.003,-0.0003,-0.0046,-0.0,-0.003,-0.0031,-0.0042,-0.0042,-0.0153,-0.0041,-0.0041,-0.004,-0.004,0,-0.0281,-0.03,-0.024,-0.0248,-0.0267,-0.0219,-0.0239,-0.0217,-0.0195,-0.0198,-0.0151,-0.0155,-0.0104,-0.0103,-0.0073,-0.0086,-0.0084,-0.0069,-0.0061,-0.0074,-0.0076,-0.0071,-0.0066,-0.0043,-0.0042,-0.0042,-0.0041,0,-0.0386,-0.0347,-0.0358,-0.0317,-0.0308,-0.0323,-0.0288,-0.0295,-0.0267,-0.0271,-0.027,-0.0227,-0.0222,-0.0183,-0.0171,-0.0151,-0.0176,-0.0159,-0.0183,-0.0178,-0.021,-0.0208,-0.0322,-0.0334,-0.0215,-0.0216,-0.0217,0,-0.0443,-0.0455,-0.0415,-0.0414,-0.0399,-0.0397,-0.0391,-0.0345,-0.034,-0.0314,-0.0324,-0.0315,-0.0306,-0.0302,-0.027,-0.026,-0.0243,-0.0283,-0.0241,-0.0253,-0.0243,-0.0243,-0.0243,-0.0293,-0.0294,-0.0296,-0.0297,0,-0.0547,-0.0527,-0.052,-0.0506,-0.05,-0.0487,-0.0471,-0.0472,-0.0421,-0.0419,-0.0413,-0.0406,-0.0392,-0.0385,-0.0369,-0.0352,-0.0316,-0.031,-0.0316,-0.0329,-0.0343,-0.0335,-0.0208,-0.0308,-0.0307,-0.0306,-0.0305,-0.0305,-0.0629,-0.0637,-0.061,-0.0604,-0.0586,-0.0572,-0.0576,-0.0547,-0.0542,-0.0526,-0.05,-0.0498,-0.0473,-0.0448,-0.0434,-0.0432,-0.0411,-0.042,-0.0423,-0.0426,-0.0432,-0.0343,-0.0429,-0.0429,-0.0428,-0.0428,-0.0428,0,-0.0731,-0.0711,-0.0705,-0.0683,-0.0678,-0.0643,-0.0623,-0.0621,-0.062,-0.06,-0.0591,-0.0585,-0.0577,-0.0543,-0.0532,-0.0537,-0.052,-0.0535,-0.0534,-0.0531,-0.0452,-0.0447,-0.0549,-0.0549,-0.0549,-0.0549,-0.0549,-0.0549,-0.0783,-0.0795,-0.0771,-0.0773,-0.0752,-0.075,-0.0741,-0.0728,-0.0711,-0.0705,-0.0698,-0.0676,-0.065,-0.0636,-0.0627,-0.0617,-0.0615,-0.0636,-0.0621,-0.0548,-0.0536,-0.0525,-0.0521,-0.0636,-0.0636,-0.07,-0.07,-0.0701]}]]